STARLINK-1598, 46160

Orbit data source: Space-Track

STARLINK-1598, 46160 is a payload satellite owned by SpaceX/Seattle (US) in LEO that was launched on Tue, 18 Aug 2020 UTC via an FALCON 9 launch vehicle from the Air Force Eastern Test Range (AFETR). Payload-class satellites include a variety of spacecraft equipped with specific instruments for various scientific and technological missions. These include communications satellites like Starlink; space stations such as the ISS; scientific satellites like the Hubble; Earth observation satellites from companies like Planet Labs, Umbra, and HawkEye 360; GPS; miniature CubeSats for education and research; and military/defense satellites.

Loading next visibility...
Identifier
46160, 2020-057AV
Orbit
LEO
Country
Flag of USUS
Related business
Manufacturer
SpaceX/Seattle
Mission
Partially operational Commercial Communications
Bus & Motor
STARLINK, Unknown motor
Mass
260 kg wet, ~248 kg dry
Launch date (UTC)
2020-08-18 (6 years ago)
Launch vehicle
FALCON 9
Launch site
Air Force Eastern Test Range (AFETR)
Object type
Payload
Rocket body
Debris
Shape & HBR
Box + 1 Pan, 10.1 m
Radar Cross Section
13.562 m², Large (>1 m²)

Expand to show TLE details & history
Last TLE update: 2 days ago

TLE from 2 days ago
0 STARLINK-1598
1 46160U 20057AV  26171.30461481  .00095260  00000-0  63936-3 0  9997
2 46160  53.0425 140.9480 0001050  13.6685 346.4361 15.74475546323833
Epoch: 2026-06-20T07:18Z
TLE epoch observation values (Epoch: 2026-06-20T07:18:38.719Z)
Latitude
-0.00008°
Longitude
122.76546°
Altitude
346.342 km
Speed
7.703 km/s
True Right ascension
09h 23m 47s
True Declination
0° 00' 00"
Sunlit
Object was in daylight at epoch
Visualization orbit readout
Latitude
Unknown
Longitude
Unknown
Altitude
Unknown
Speed
Unknown
Apparent Right ascension
Unknown
Apparent Declination
Unknown
Sunlit
N/A
Visualization observer readout
Local Sidereal Time
21:39:31
Azimuth
Unknown
Elevation
Unknown
Doppler factor
Unknown
Orbital elements
Apogee altitude
347.111 km
Perigee altitude
345.698 km
Semi-major axis
6,724.542 km
Eccentricity
0.00011
Inclination
53.0425°
RAAN
140.948°
Arg. of periapsis
13.6685°
True anomaly
346.43328°
Mean anomaly
346.4361°
Eccentric anomaly
346.43469°
Mean motion
3.93595 °/min
Orbital period
91.46 mins
BSTAR
0.00063936
Loading maneuver chart data...
Computing Atmospheric mass density...

Documentation

Showing up to 5 results
|